TimeEST,TemperatureF,Dew PointF,Humidity,Sea Level PressureIn,VisibilityMPH,Wind Direction,Wind SpeedMPH,Gust SpeedMPH,PrecipitationIn,Events,Conditions,WindDirDegrees,DateUTC
12:53 AM,59.0,57.9,96,30.06,-9999.0,Calm,Calm,-,0.04,,Unknown,0,2014-01-02 05:53:00
1:53 AM,59.0,57.9,96,30.03,-9999.0,Calm,Calm,-,0.01,,Unknown,0,2014-01-02 06:53:00
2:53 AM,59.0,57.9,96,30.01,-9999.0,NE,3.5,-,0.09,,Unknown,50,2014-01-02 07:53:00
3:53 AM,59.0,57.9,96,29.99,-9999.0,North,3.5,-,0.02,,Unknown,350,2014-01-02 08:53:00
4:53 AM,57.9,57.9,100,29.98,-9999.0,North,5.8,-,0.02,,Unknown,360,2014-01-02 09:53:00
5:53 AM,57.9,57.0,97,29.98,-9999.0,NNW,4.6,-,0.03,,Unknown,330,2014-01-02 10:53:00
6:53 AM,57.0,57.0,100,29.97,-9999.0,Calm,Calm,-,0.12,,Unknown,0,2014-01-02 11:53:00
7:53 AM,57.0,55.9,96,29.97,-9999.0,Variable,3.5,-,0.08,,Unknown,0,2014-01-02 12:53:00
8:53 AM,57.9,57.9,100,29.96,-9999.0,Calm,Calm,-,0.02,,Unknown,0,2014-01-02 13:53:00
9:53 AM,59.0,57.9,96,29.94,-9999.0,Variable,3.5,-,0.08,,Unknown,0,2014-01-02 14:53:00
10:53 AM,60.1,59.0,96,29.95,-9999.0,Calm,Calm,-,0.07,,Unknown,0,2014-01-02 15:53:00
11:53 AM,60.1,60.1,100,29.89,-9999.0,SE,4.6,-,0.10,,Unknown,130,2014-01-02 16:53:00
12:53 PM,63.0,63.0,100,29.86,-9999.0,SSW,4.6,-,0.03,,Unknown,210,2014-01-02 17:53:00
1:53 PM,64.0,63.0,96,29.84,-9999.0,WNW,6.9,-,N/A,,Unknown,290,2014-01-02 18:53:00
2:53 PM,64.0,64.0,100,29.84,-9999.0,SW,8.1,-,N/A,,Unknown,230,2014-01-02 19:53:00
3:53 PM,64.0,63.0,96,29.86,-9999.0,WSW,5.8,-,N/A,,Unknown,240,2014-01-02 20:53:00
4:53 PM,63.0,63.0,100,29.85,-9999.0,SSW,5.8,-,0.11,,Unknown,210,2014-01-02 21:53:00
5:53 PM,63.0,63.0,100,29.83,-9999.0,SW,8.1,-,0.01,,Unknown,220,2014-01-02 22:53:00
6:53 PM,63.0,63.0,100,29.84,-9999.0,WSW,10.4,-,N/A,,Unknown,240,2014-01-02 23:53:00
7:16 PM,60.8,60.8,100,29.87,-9999.0,NNW,11.5,20.7,0.02,,Unknown,330,2014-01-03 00:16:00
7:53 PM,57.0,55.0,93,29.90,-9999.0,NNW,16.1,28.8,0.02,,Unknown,330,2014-01-03 00:53:00
8:53 PM,55.0,54.0,96,29.92,-9999.0,NNW,6.9,-,0.01,,Unknown,340,2014-01-03 01:53:00
9:53 PM,54.0,52.0,93,29.96,-9999.0,NW,11.5,-,N/A,,Unknown,320,2014-01-03 02:53:00
10:53 PM,51.1,46.9,86,30.01,-9999.0,NNW,15.0,24.2,N/A,,Unknown,330,2014-01-03 03:53:00
11:53 PM,46.9,36.0,66,30.05,-9999.0,NNW,13.8,23.0,N/A,,Unknown,330,2014-01-03 04:53:00